SPACEBEE-100 (48883 NORAD) Tracking and Keplerian Element Data

This shows tracking and keplerian element data for the satellite.

Feedback or suggestion? Click here.




ElementValue
Catalog48883
NameSPACEBEE-100
Epoch Orbit1674
Epoch Day287.60868756
Epoch Year2021
RAAN54.7517
Inclination97.5268
Eccentricity0.0008139
Argument of Perigee225.0521
Mean Anonmoly135.005
Mean Motion15.12251749
Decay Rate3.216E-05
L11 48883U 21059E 21287.60868756 .00003216 00000-0 18967-3 0 9990
L22 48883 97.5268 54.7517 0008139 225.0521 135.0050 15.12251749 16746

Live tracking and technical data element details for SPACEBEE-100 (NORAD 48883). SPACEBEE-100 can be tracked NOW for your location showing map with azimuth and elevation plus other details from your city location.

Track the satellite on the map from your city or location and see movement details for azimuth, elevation, latitude, longitude, range, height, and movement on the map or in text.







IsCatalogInMostPopularTable: catalog: 48883, numindb: 18
Update: records affected: 1



GetName: 48883 SPACEBEE-100

Hit Count: updated at: Tue, 19 Oct 2021 09:19:50 GMT